Wetterstats.de || Aktuelle Messwerte / Archiv || Stationsstandorte || Wetterblog || Wissenswertes


Monatsübersicht für September 2019 Diagramm
 
Wetter Information zur Wetteranzeige
Zeitraffer
Tageslänge (hh:mm)
Höchsttemperatur in °C
Uhrzeit
Tiefsttemperatur in °C
Uhrzeit
Luftfeuchte (max., in %)
Uhrzeit
Luftfeuchte (min., in %)
Uhrzeit
Luftdruck (max., in hPa)
Uhrzeit
Luftdruck (min., in hPa)
Uhrzeit
Luftdruck (Ø, in hPa)
Regenrate (max, mm/h)
Uhrzeit
Niederschlag in mm
Niederschlagsdauer (hh:mm)
Verdunstung in mm
Solar in W/m² (Ø)
Solar in W/m² (max.)
UV-Index (max.)
Sonnenscheindauer (hh:mm)
Windrichtung (Ø)
Windstärke (Ø in km/h)
Windstärke (Ø in bft)
Windböe (max., in km/h)
Uhrzeit
Windböe (max., in bft)
Uhrzeit
Taupunkt (max., in °C)
Uhrzeit
Taupunkt (min., in °C)
Uhrzeit
Windchill (min., in °C)
Uhrzeit
Gewitterindex (max.)
Uhrzeit
Waldbrandindex (max.)
Uhrzeit
Graslandfeuerindex (max.)
Uhrzeit
Staubsturm-Index (max.)
Uhrzeit
01
Zeitraffer
13:42
30.6
12:55 Uhr
20.1
23:55 Uhr

72
06:55 Uhr
46
11:35 Uhr
1014.4
23:55 Uhr

1006.6
06:45 Uhr
1009.0
0,000
00:00 Uhr
0,000
00:00:00
2.819
252
647
12:05 Uhr
3.2
13:00 Uhr

06:40:00
0,7
0
12,9
22:00 Uhr

2
18.6
09:30 Uhr
11.6
23:25 Uhr
20.1
23:55 Uhr
11
01:40 Uhr
5.9
10:05 Uhr
5.9
00:00 Uhr
1.9
00:00 Uhr
02
Zeitraffer
13:39
23.3
13:25 Uhr
14.4
06:35 Uhr

81
05:45 Uhr
36
14:25 Uhr
1022.1
23:45 Uhr

1014.3
00:05 Uhr
1018.7
0,000
00:00 Uhr
0,000
00:00:00
2.718
286
759
13:35 Uhr
3.3
12:40 Uhr

06:51:00
0,6
0
9,7
10:20 Uhr

2
12.1
03:45 Uhr
6.2
14:25 Uhr
14.4
06:35 Uhr
5
00:00 Uhr
5.9
00:00 Uhr
5.9
00:00 Uhr
1.3
10:20 Uhr
03
Zeitraffer
13:35
21.8
17:10 Uhr
11.8
06:10 Uhr

80
06:10 Uhr
46
16:10 Uhr
1022.3
01:15 Uhr

1019.6
19:00 Uhr
1020.9
2,400
10:20 Uhr
0,200
00:01:00
1.245
116
310
08:45 Uhr
1.9
13:05 Uhr

01:27:00
0,2
0
8,0
09:05 Uhr

2
12.2
10:30 Uhr
8.1
00:00 Uhr
11.8
06:10 Uhr
4
21:50 Uhr
5.9
00:00 Uhr
5.9
00:00 Uhr
1.2
09:10 Uhr
04
Zeitraffer
13:30
25.8
17:00 Uhr
14.3
03:50 Uhr

85
03:50 Uhr
33
17:00 Uhr
1020.2
00:00 Uhr

1009.5
18:45 Uhr
1015.1
0,000
00:00 Uhr
0,000
00:00:00
2.286
226
650
12:30 Uhr
3.1
12:50 Uhr

04:55:00
0,6
0
20,9
17:15 Uhr

4
13.9
08:35 Uhr
8.2
17:05 Uhr
14.3
03:50 Uhr
5
05:15 Uhr
5.9
00:00 Uhr
5.9
00:00 Uhr
1.7
13:05 Uhr
05
Zeitraffer
13:27
23.2
12:50 Uhr
14.2
23:55 Uhr

90
05:10 Uhr
40
13:00 Uhr
1019.9
23:55 Uhr

1009.7
00:00 Uhr
1013.5
0,000
00:00 Uhr
0,000
00:00:00
2.159
261
754
13:20 Uhr
3.2
12:45 Uhr

04:57:00
0,7
0
14,5
14:25 Uhr

3
14.8
06:15 Uhr
8.2
23:40 Uhr
14.2
23:55 Uhr
8
04:20 Uhr
5.9
00:00 Uhr
5.9
00:00 Uhr
1.6
14:25 Uhr
06
Zeitraffer
13:23
21.4
13:10 Uhr
10.4
06:20 Uhr

83
06:05 Uhr
37
14:50 Uhr
1024.1
09:55 Uhr

1018.8
23:45 Uhr
1021.4
0,000
00:00 Uhr
0,000
00:00:00
2.261
264
717
12:55 Uhr
3.0
12:55 Uhr

07:02:00
0,3
0
12,9
15:35 Uhr

2
9.6
09:40 Uhr
3.8
19:20 Uhr
10.4
06:20 Uhr
0
00:00 Uhr
5.9
00:00 Uhr
5.9
00:00 Uhr
1.3
15:40 Uhr
07
Zeitraffer
13:18
19.2
14:55 Uhr
9.4
06:00 Uhr

86
23:25 Uhr
45
13:55 Uhr
1018.8
00:00 Uhr

1016.4
15:15 Uhr
1017.2
0,000
00:00 Uhr
0,000
00:00:00
1.295
134
411
09:05 Uhr
1.3
11:05 Uhr

00:35:00
0,8
0
14,5
17:20 Uhr

3
12.0
22:15 Uhr
5.2
00:30 Uhr
9.4
06:00 Uhr
4
21:35 Uhr
5.9
00:00 Uhr
5.9
00:00 Uhr
1.7
15:20 Uhr
08
Zeitraffer
13:15
19.9
15:25 Uhr
12.7
06:55 Uhr

91
07:15 Uhr
52
17:45 Uhr
1017.5
00:00 Uhr

1015.7
18:55 Uhr
1016.6
0,000
00:00 Uhr
0,000
00:00:00
1.524
169
712
13:40 Uhr
2.4
13:40 Uhr

02:38:00
1,3
0
14,5
14:55 Uhr

3
12.1
11:15 Uhr
9.4
17:45 Uhr
12.7
06:55 Uhr
4
00:00 Uhr
5.9
00:00 Uhr
5.9
00:00 Uhr
1.9
18:55 Uhr
09
Zeitraffer
13:11
15.2
00:00 Uhr
12.6
23:50 Uhr

97
19:30 Uhr
70
00:00 Uhr
1015.6
00:00 Uhr

1007.7
17:00 Uhr
1010.6
4,800
14:05 Uhr
10,800
00:54:00
0.406
42
116
13:05 Uhr
0.7
13:05 Uhr

00:00:00
1,7
0
14,5
10:40 Uhr

3
14.1
17:35 Uhr
9.7
00:30 Uhr
12.6
23:50 Uhr
5
20:15 Uhr
5.9
00:00 Uhr
5.9
00:00 Uhr
1.8
08:45 Uhr
10
Zeitraffer
13:06
20.2
13:20 Uhr
12.2
01:25 Uhr

96
00:00 Uhr
46
16:10 Uhr
1018.4
23:30 Uhr

1009.3
02:00 Uhr
1013.1
2,400
00:50 Uhr
0,400
00:02:00
1.600
201
700
12:55 Uhr
2.6
12:55 Uhr

03:04:00
0,7
0
9,7
13:45 Uhr

2
12.7
09:30 Uhr
7.4
16:10 Uhr
12.2
01:25 Uhr
5
03:40 Uhr
0.0
00:00 Uhr
0.8
14:30 Uhr
0.0
00:00 Uhr
11
Zeitraffer
13:03
22.3
15:55 Uhr
9.7
06:00 Uhr

87
06:10 Uhr
39
14:30 Uhr
1022.0
11:10 Uhr

1018.4
00:00 Uhr
1020.3
0,000
00:00 Uhr
0,000
00:00:00
2.184
239
627
12:45 Uhr
2.4
13:10 Uhr

06:39:00
0,5
0
14,5
16:20 Uhr

3
10.5
10:50 Uhr
7.2
14:15 Uhr
9.7
06:00 Uhr
2
10:50 Uhr
0.0
00:00 Uhr
4.0
15:00 Uhr
0.0
00:00 Uhr
12
Zeitraffer
12:58
21.7
15:55 Uhr
15.1
03:20 Uhr

92
03:50 Uhr
59
00:10 Uhr
1026.3
13:15 Uhr

1021.0
00:00 Uhr
1024.5
2,400
03:50 Uhr
0,200
00:01:00
0.813
90
569
13:45 Uhr
2.6
13:40 Uhr

00:15:00
0,1
0
8,0
14:50 Uhr

2
15.3
12:05 Uhr
9.0
00:10 Uhr
15.1
03:20 Uhr
8
05:55 Uhr
0.0
00:00 Uhr
3.4
16:05 Uhr
0.0
00:00 Uhr
13
Zeitraffer
12:54
22.4
13:05 Uhr
13.3
23:50 Uhr

88
01:10 Uhr
54
17:40 Uhr
1031.9
23:35 Uhr

1024.7
04:45 Uhr
1027.0
0,000
00:00 Uhr
0,000
00:00:00
0.889
84
670
13:05 Uhr
2.7
13:05 Uhr

00:08:00
0,6
0
29,0
13:35 Uhr

4
16.7
13:05 Uhr
8.4
22:50 Uhr
13.3
23:50 Uhr
8
12:40 Uhr
2.8
17:10 Uhr
4.7
17:45 Uhr
0.2
13:40 Uhr
14
Zeitraffer
12:51
19.1
13:00 Uhr
9.1
06:30 Uhr

89
06:20 Uhr
44
15:20 Uhr
1033.8
10:25 Uhr

1027.4
23:55 Uhr
1031.6
0,000
00:00 Uhr
0,000
00:00:00
1.626
195
630
12:25 Uhr
2.7
12:25 Uhr

05:24:00
0,3
0
8,0
11:00 Uhr

2
11.0
10:10 Uhr
5.9
18:30 Uhr
9.1
06:30 Uhr
2
00:00 Uhr
3.1
14:15 Uhr
4.8
15:00 Uhr
0.0
00:00 Uhr
15
Zeitraffer
12:46
22.7
15:40 Uhr
10.3
00:45 Uhr

88
22:45 Uhr
28
16:20 Uhr
1027.3
00:00 Uhr

1015.5
19:05 Uhr
1019.7
0,000
00:00 Uhr
0,000
00:00:00
1.421
153
457
09:30 Uhr
2.1
13:55 Uhr

03:19:00
0,5
0
9,7
21:00 Uhr

2
14.7
22:40 Uhr
3.1
16:50 Uhr
10.3
00:45 Uhr
8
22:15 Uhr
3.6
16:00 Uhr
5.3
16:25 Uhr
0.6
16:30 Uhr


 
Wetter Information zur Wetteranzeige
Zeitraffer
Tageslänge (hh:mm)
Höchsttemperatur in °C
Uhrzeit
Tiefsttemperatur in °C
Uhrzeit
Luftfeuchte (max., in %)
Uhrzeit
Luftfeuchte (min., in %)
Uhrzeit
Luftdruck (max., in hPa)
Uhrzeit
Luftdruck (min., in hPa)
Uhrzeit
Luftdruck (Ø, in hPa)
Regenrate (max, mm/h)
Uhrzeit
Niederschlag in mm
Niederschlagsdauer (hh:mm)
Verdunstung in mm
Solar in W/m² (Ø)
Solar in W/m² (max.)
UV-Index (max.)
Sonnenscheindauer (hh:mm)
Windrichtung (Ø)
Windstärke (Ø in km/h)
Windstärke (Ø in bft)
Windböe (max., in km/h)
Uhrzeit
Windböe (max., in bft)
Uhrzeit
Taupunkt (max., in °C)
Uhrzeit
Taupunkt (min., in °C)
Uhrzeit
Windchill (min., in °C)
Uhrzeit
Gewitterindex (max.)
Uhrzeit
Waldbrandindex (max.)
Uhrzeit
Graslandfeuerindex (max.)
Uhrzeit
Staubsturm-Index (max.)
Uhrzeit
16
Zeitraffer
12:42
17.3
12:20 Uhr
13.4
06:05 Uhr

84
22:05 Uhr
59
11:55 Uhr
1018.2
08:40 Uhr

1015.4
18:20 Uhr
1016.9
0,000
00:00 Uhr
0,000
00:00:00
0.965
101
331
11:45 Uhr
2.1
12:00 Uhr

00:07:00
0,3
0
6,4
10:25 Uhr

1
12.2
00:05 Uhr
8.8
11:55 Uhr
13.4
06:05 Uhr
5
00:05 Uhr
2.8
11:45 Uhr
4.4
13:05 Uhr
0.0
00:00 Uhr
17
Zeitraffer
12:39
17.1
10:50 Uhr
9.3
20:55 Uhr

91
15:35 Uhr
60
11:40 Uhr
1015.9
00:00 Uhr

1010.6
16:00 Uhr
1013.2
12,000
15:20 Uhr
5,800
00:28:00
0.889
111
578
10:50 Uhr
1.5
10:40 Uhr

01:02:00
0,7
0
11,3
15:15 Uhr

2
11.5
13:50 Uhr
6.3
23:20 Uhr
9.3
20:55 Uhr
2
00:00 Uhr
2.7
11:05 Uhr
4.2
11:05 Uhr
0.0
00:00 Uhr
18
Zeitraffer
12:34
16.1
14:20 Uhr
7.8
05:30 Uhr

90
07:00 Uhr
47
14:55 Uhr
1022.1
23:05 Uhr

1014.4
00:00 Uhr
1019.4
2,400
15:10 Uhr
0,200
00:01:00
1.118
150
575
13:50 Uhr
2.0
13:40 Uhr

03:23:00
1,0
0
14,5
15:10 Uhr

3
8.7
09:55 Uhr
4.2
15:55 Uhr
7.8
05:30 Uhr
0
00:00 Uhr
0.0
00:00 Uhr
2.0
15:00 Uhr
0.0
00:00 Uhr
19
Zeitraffer
12:30
16.3
14:35 Uhr
7.2
07:00 Uhr

87
06:35 Uhr
50
16:55 Uhr
1027.7
23:10 Uhr

1022.0
00:05 Uhr
1025.1
0,000
00:00 Uhr
0,000
00:00:00
1.524
215
636
12:25 Uhr
2.2
12:30 Uhr

05:55:00
0,4
0
11,3
13:00 Uhr

2
8.9
11:10 Uhr
5.0
04:50 Uhr
7.2
07:00 Uhr
0
00:00 Uhr
0.8
16:25 Uhr
3.5
16:45 Uhr
0.0
00:00 Uhr
20
Zeitraffer
12:26
17.1
16:15 Uhr
6.1
05:15 Uhr

90
07:20 Uhr
55
14:10 Uhr
1027.7
11:20 Uhr

1024.7
23:45 Uhr
1026.4
0,000
00:00 Uhr
0,000
00:00:00
1.143
157
388
09:45 Uhr
1.8
13:40 Uhr

02:40:00
0,2
0
8,0
12:05 Uhr

2
9.4
16:10 Uhr
4.2
05:10 Uhr
6.1
05:15 Uhr
2
19:45 Uhr
0.9
14:25 Uhr
3.7
14:20 Uhr
0.0
00:00 Uhr
21
Zeitraffer
12:22
20.6
12:55 Uhr
8.8
07:00 Uhr

88
07:05 Uhr
48
12:45 Uhr
1024.8
00:15 Uhr

1017.8
23:45 Uhr
1021.6
0,000
00:00 Uhr
0,000
00:00:00
1.626
214
576
12:50 Uhr
2.5
12:50 Uhr

06:01:00
0,1
0
8,0
13:00 Uhr

2
10.6
19:10 Uhr
6.8
06:55 Uhr
8.8
07:00 Uhr
3
19:45 Uhr
3.1
14:00 Uhr
4.8
13:00 Uhr
0.0
00:00 Uhr
22
Zeitraffer
12:18
24.0
16:45 Uhr
8.7
06:40 Uhr

89
02:30 Uhr
38
15:50 Uhr
1017.8
00:00 Uhr

1010.5
18:30 Uhr
1013.7
0,000
00:00 Uhr
0,000
00:00:00
1.905
216
572
12:40 Uhr
2.3
12:40 Uhr

05:49:00
1,7
0
30,6
12:25 Uhr

5
9.9
21:40 Uhr
6.6
06:40 Uhr
8.7
06:40 Uhr
2
00:00 Uhr
3.5
16:50 Uhr
5.2
16:05 Uhr
1.3
13:00 Uhr
23
Zeitraffer
12:14
22.3
15:20 Uhr
10.2
05:20 Uhr

84
03:10 Uhr
38
14:20 Uhr
1014.1
22:20 Uhr

1011.3
00:00 Uhr
1012.4
0,000
00:00 Uhr
0,000
00:00:00
1.930
207
531
13:25 Uhr
2.0
12:40 Uhr

06:06:00
1,9
0
20,9
13:55 Uhr

4
12.6
23:25 Uhr
6.7
14:25 Uhr
10.2
05:20 Uhr
6
22:05 Uhr
3.4
15:05 Uhr
5.1
15:05 Uhr
1.3
14:10 Uhr
24
Zeitraffer
12:10
17.8
17:20 Uhr
13.6
05:45 Uhr

92
08:45 Uhr
73
00:00 Uhr
1014.0
00:00 Uhr

1007.9
23:50 Uhr
1011.6
0,000
00:00 Uhr
0,000
00:00:00
0.406
43
140
13:25 Uhr
0.7
13:30 Uhr

00:00:00
0,4
0
12,9
17:00 Uhr

2
14.4
15:15 Uhr
11.7
05:05 Uhr
13.6
05:45 Uhr
7
19:35 Uhr
2.3
00:00 Uhr
4.0
00:00 Uhr
0.0
00:00 Uhr
25
Zeitraffer
12:06
17.4
15:10 Uhr
13.6
23:55 Uhr

96
21:50 Uhr
80
14:30 Uhr
1008.0
00:00 Uhr

1004.2
16:05 Uhr
1005.3
2,400
10:05 Uhr
1,600
00:08:00
0.381
60
167
13:05 Uhr
1.0
13:05 Uhr

00:00:00
0,2
0
9,7
12:45 Uhr

2
14.9
18:33 Uhr
12.7
07:20 Uhr
13.6
23:55 Uhr
8
19:35 Uhr
1.8
09:50 Uhr
3.4
09:40 Uhr
0.0
00:00 Uhr
26
Zeitraffer
12:02
20.9
12:20 Uhr
10.1
07:10 Uhr

97
00:05 Uhr
64
15:40 Uhr
1011.0
20:35 Uhr

1006.3
00:00 Uhr
1009.4
2,400
18:10 Uhr
0,200
00:01:00
1.321
178
673
12:20 Uhr
1.9
11:50 Uhr

04:36:00
0,2
0
11,3
20:05 Uhr

2
14.2
11:15 Uhr
9.4
07:20 Uhr
10.1
07:10 Uhr
7
19:30 Uhr
2.1
15:40 Uhr
4.2
14:05 Uhr
0.0
00:00 Uhr
27
Zeitraffer
11:58
17.0
11:20 Uhr
13.1
23:55 Uhr

97
21:25 Uhr
85
00:55 Uhr
1010.8
00:00 Uhr

1006.8
14:50 Uhr
1008.5
12,000
16:50 Uhr
9,000
00:45:00
0.254
38
117
15:30 Uhr
0.5
11:10 Uhr

00:00:00
0,5
0
11,3
05:40 Uhr

2
16.3
11:45 Uhr
12.6
23:55 Uhr
13.1
23:55 Uhr
8
03:45 Uhr
1.6
00:00 Uhr
3.7
02:10 Uhr
0.0
00:00 Uhr
28
Zeitraffer
11:53
20.4
13:10 Uhr
11.9
02:40 Uhr

97
00:00 Uhr
67
13:10 Uhr
1010.2
11:15 Uhr

1008.6
00:35 Uhr
1009.2
26,400
13:35 Uhr
4,400
00:16:00
0.737
117
651
13:00 Uhr
2.0
13:00 Uhr

01:32:00
0,2
0
8,0
12:00 Uhr

2
15.6
14:40 Uhr
11.5
02:40 Uhr
11.9
02:40 Uhr
7
14:40 Uhr
0.0
00:00 Uhr
0.0
00:00 Uhr
0.0
00:00 Uhr
29
Zeitraffer
11:49
16.1
10:35 Uhr
12.8
05:50 Uhr

94
13:10 Uhr
78
10:40 Uhr
1008.7
00:00 Uhr

993.4
23:55 Uhr
1002.7
4,800
12:55 Uhr
3,400
00:17:00
0.406
64
214
09:15 Uhr
0.8
12:00 Uhr

00:44:00
0,5
0
16,1
13:45 Uhr

3
14.0
23:50 Uhr
11.0
05:55 Uhr
12.8
05:50 Uhr
8
23:50 Uhr
0.0
00:00 Uhr
0.0
00:00 Uhr
0.0
00:00 Uhr
30
Zeitraffer
11:46
16.9
16:00 Uhr
12.7
23:40 Uhr

96
06:35 Uhr
70
16:30 Uhr
1007.7
22:50 Uhr

989.4
06:45 Uhr
997.4
4,800
06:15 Uhr
3,600
00:18:00
0.610
81
492
12:50 Uhr
1.6
13:15 Uhr

00:08:00
1,2
0
14,5
10:15 Uhr

3
14.5
05:35 Uhr
10.1
20:50 Uhr
12.4
10:15 Uhr
8
00:00 Uhr
0.0
00:00 Uhr
0.0
00:00 Uhr
0.0
00:00 Uhr

Seiten-Historie || Downloads || Impressum / Datenschutz